Location: *
(51.0333°S, 178.4667°E)
Time: 20:42:00
(UTC+00:00)

Meteor 1-29 - Pass Details

Date: 15 November 2019
Orbit: 439 x 463 km, 97.7° (Epoch: 07 December)

Event Time Altitude Azimuth Distance (km) Brightness Sun altitude
Exits shadow 10:38:55 42° 77° (ENE) 662 3.4 -18.7°
Maximum altitude 10:39:28 47° 109° (ESE) 615 3.5 -18.8°
Drops below altitude 10° 10:42:50 10° 183° (S) 1,623 6.9 -18.9°
Sets 10:44:56 0° 189° (S) 2,510 8.3 -19.0°
